Location: Newark
(53.3333°N, 83.7500°E)
Time: 20:49:24
(UTC+00:00)

N. Korean satellite - Pass Details

Date: 26 September 2020
Orbit: 452 x 505 km, 97.2° (Epoch: 28 October)

Event Time Altitude Azimuth Distance (km) Brightness Sun altitude
Rises 23:40:38 0° 18° (NNE) 2,605 10.6 -6.7°
Reaches altitude 10° 23:42:50 10° 26° (NNE) 1,709 9.8 -6.3°
Maximum altitude 23:46:20 40° 98° (E) 741 8.2 -5.8°
Drops below altitude 10° 23:49:44 10° 169° (S) 1,667 9.4 -5.3°
Sets 23:51:51 0° 177° (S) 2,532 10.2 -5.0°
